Time,TemperatureF,DewpointF,PressureIn,WindDirection,WindDirectionDegrees,WindSpeedMPH,WindSpeedGustMPH,Humidity,HourlyPrecipIn,Conditions,Clouds,dailyrainin,SolarRadiationWatts/m^2,SoftwareType,DateUTC
2013-11-24 00:02:00,31.0,29.2,30.14,East,86,3.0,4.0,93,0.00,,,0.00,0,Wunderground v.1.15,2013-11-24 07:02:00,
2013-11-24 00:07:00,31.0,29.2,30.14,East,94,3.0,4.0,93,0.00,,,0.00,0,Wunderground v.1.15,2013-11-24 07:07:00,
2013-11-24 00:12:00,31.0,29.2,30.15,East,92,6.0,6.0,93,0.00,,,0.00,0,Wunderground v.1.15,2013-11-24 07:12:00,
2013-11-24 00:17:00,30.9,29.1,30.14,East,86,4.0,6.0,93,0.00,,,0.00,0,Wunderground v.1.15,2013-11-24 07:17:00,
2013-11-24 00:22:00,30.8,29.0,30.14,East,86,3.0,5.0,93,0.00,,,0.00,0,Wunderground v.1.15,2013-11-24 07:22:00,
2013-11-24 00:26:00,30.9,29.1,30.14,ENE,75,2.0,5.0,93,0.00,,,0.00,0,Wunderground v.1.15,2013-11-24 07:26:00,
2013-11-24 00:31:00,30.9,29.1,30.14,East,80,4.0,5.0,93,0.00,,,0.00,0,Wunderground v.1.15,2013-11-24 07:31:00,
2013-11-24 00:36:00,30.9,29.1,30.14,East,82,5.0,7.0,93,0.00,,,0.00,0,Wunderground v.1.15,2013-11-24 07:36:00,
2013-11-24 00:41:00,30.8,29.0,30.14,ENE,78,3.0,7.0,93,0.00,,,0.00,0,Wunderground v.1.15,2013-11-24 07:41:00,
2013-11-24 00:46:00,30.9,29.1,30.14,ENE,73,4.0,7.0,93,0.00,,,0.00,0,Wunderground v.1.15,2013-11-24 07:46:00,
2013-11-24 00:51:00,30.8,29.0,30.13,ENE,77,4.0,6.0,93,0.00,,,0.00,0,Wunderground v.1.15,2013-11-24 07:51:00,
2013-11-24 00:56:00,30.9,29.1,30.13,East,88,3.0,6.0,93,0.00,,,0.00,0,Wunderground v.1.15,2013-11-24 07:56:00,
2013-11-24 01:01:00,30.9,29.1,30.13,East,89,3.0,4.0,93,0.00,,,0.00,0,Wunderground v.1.15,2013-11-24 08:01:00,
2013-11-24 01:06:00,30.8,29.0,30.13,ENE,78,7.0,7.0,93,0.00,,,0.00,0,Wunderground v.1.15,2013-11-24 08:06:00,
2013-11-24 01:11:00,30.9,29.1,30.13,East,98,3.0,7.0,93,0.00,,,0.00,0,Wunderground v.1.15,2013-11-24 08:11:00,
2013-11-24 01:16:00,30.9,29.1,30.13,East,87,3.0,8.0,93,0.00,,,0.00,0,Wunderground v.1.15,2013-11-24 08:16:00,
2013-11-24 01:21:00,30.9,29.1,30.13,East,82,3.0,8.0,93,0.00,,,0.00,0,Wunderground v.1.15,2013-11-24 08:21:00,
2013-11-24 01:26:00,30.9,29.1,30.13,ENE,71,4.0,8.0,93,0.00,,,0.00,0,Wunderground v.1.15,2013-11-24 08:26:00,
2013-11-24 01:31:00,30.9,29.1,30.13,East,81,7.0,7.0,93,0.00,,,0.00,0,Wunderground v.1.15,2013-11-24 08:31:00,
2013-11-24 01:36:00,30.9,29.1,30.13,East,83,2.0,7.0,93,0.00,,,0.00,0,Wunderground v.1.15,2013-11-24 08:36:00,
2013-11-24 01:41:00,30.9,29.1,30.13,East,96,3.0,4.0,93,0.00,,,0.00,0,Wunderground v.1.15,2013-11-24 08:41:00,
2013-11-24 01:46:00,30.9,29.1,30.13,East,81,3.0,6.0,93,0.00,,,0.00,0,Wunderground v.1.15,2013-11-24 08:46:00,
2013-11-24 01:51:00,30.9,29.1,30.13,East,81,7.0,7.0,93,0.00,,,0.00,0,Wunderground v.1.15,2013-11-24 08:51:00,
2013-11-24 01:56:00,31.0,29.2,30.13,East,83,3.0,7.0,93,0.00,,,0.00,0,Wunderground v.1.15,2013-11-24 08:56:00,
2013-11-24 02:01:00,31.0,29.2,30.14,East,80,1.0,5.0,93,0.00,,,0.00,0,Wunderground v.1.15,2013-11-24 09:01:00,
2013-11-24 02:06:00,30.9,29.1,30.13,East,84,3.0,5.0,93,0.00,,,0.00,0,Wunderground v.1.15,2013-11-24 09:06:00,
2013-11-24 02:11:00,31.0,29.2,30.13,East,86,2.0,4.0,93,0.00,,,0.00,0,Wunderground v.1.15,2013-11-24 09:11:00,
2013-11-24 02:16:00,31.0,29.2,30.13,ENE,67,3.0,5.0,93,0.00,,,0.00,0,Wunderground v.1.15,2013-11-24 09:16:00,
2013-11-24 02:21:00,31.0,29.2,30.14,East,98,2.0,3.0,93,0.00,,,0.00,0,Wunderground v.1.15,2013-11-24 09:21:00,
2013-11-24 02:26:00,31.0,29.2,30.14,East,94,1.0,3.0,93,0.00,,,0.00,0,Wunderground v.1.15,2013-11-24 09:26:00,
2013-11-24 02:31:00,31.0,29.2,30.14,East,94,1.0,3.0,93,0.00,,,0.00,0,Wunderground v.1.15,2013-11-24 09:31:00,
2013-11-24 02:36:00,31.0,29.2,30.14,East,101,2.0,4.0,93,0.00,,,0.00,0,Wunderground v.1.15,2013-11-24 09:36:00,
2013-11-24 02:41:00,31.0,29.2,30.14,East,91,3.0,3.0,93,0.00,,,0.00,0,Wunderground v.1.15,2013-11-24 09:41:00,
2013-11-24 02:46:00,31.0,29.2,30.14,East,93,2.0,5.0,93,0.00,,,0.00,0,Wunderground v.1.15,2013-11-24 09:46:00,
2013-11-24 02:51:00,31.1,29.3,30.14,ENE,70,5.0,5.0,93,0.00,,,0.00,0,Wunderground v.1.15,2013-11-24 09:51:00,
2013-11-24 02:56:00,31.1,29.3,30.14,East,89,2.0,7.0,93,0.00,,,0.00,0,Wunderground v.1.15,2013-11-24 09:56:00,
2013-11-24 03:01:00,31.1,29.3,30.14,East,91,2.0,3.0,93,0.00,,,0.00,0,Wunderground v.1.15,2013-11-24 10:01:00,
2013-11-24 03:06:00,31.1,29.3,30.14,East,98,2.0,3.0,93,0.00,,,0.00,0,Wunderground v.1.15,2013-11-24 10:06:00,
2013-11-24 03:11:00,31.1,29.3,30.14,East,96,1.0,2.0,93,0.00,,,0.00,0,Wunderground v.1.15,2013-11-24 10:11:00,
2013-11-24 03:16:00,31.2,29.4,30.13,East,101,2.0,4.0,93,0.00,,,0.00,0,Wunderground v.1.15,2013-11-24 10:16:00,
2013-11-24 03:21:00,31.2,29.4,30.13,East,99,1.0,3.0,93,0.00,,,0.00,0,Wunderground v.1.15,2013-11-24 10:21:00,
2013-11-24 03:26:00,31.3,29.5,30.13,East,98,2.0,4.0,93,0.00,,,0.00,0,Wunderground v.1.15,2013-11-24 10:26:00,
2013-11-24 03:31:00,31.3,29.5,30.13,East,93,3.0,4.0,93,0.00,,,0.00,0,Wunderground v.1.15,2013-11-24 10:31:00,
2013-11-24 03:36:00,31.3,29.5,30.13,ESE,104,3.0,4.0,93,0.00,,,0.00,0,Wunderground v.1.15,2013-11-24 10:36:00,
2013-11-24 03:41:00,31.3,29.5,30.13,East,84,2.0,4.0,93,0.00,,,0.00,0,Wunderground v.1.15,2013-11-24 10:41:00,
2013-11-24 03:46:00,31.3,29.5,30.13,ESE,103,3.0,4.0,93,0.00,,,0.00,0,Wunderground v.1.15,2013-11-24 10:46:00,
2013-11-24 03:51:00,31.2,29.4,30.13,ESE,110,2.0,2.0,93,0.00,,,0.00,0,Wunderground v.1.15,2013-11-24 10:51:00,
2013-11-24 03:56:00,31.2,29.4,30.13,ESE,110,0.0,2.0,93,0.00,,,0.00,0,Wunderground v.1.15,2013-11-24 10:56:00,
2013-11-24 04:01:00,31.2,29.4,30.12,ESE,110,0.0,1.0,93,0.00,,,0.00,0,Wunderground v.1.15,2013-11-24 11:01:00,
2013-11-24 04:06:00,31.2,29.4,30.13,ESE,110,1.0,2.0,93,0.00,,,0.00,0,Wunderground v.1.15,2013-11-24 11:06:00,
2013-11-24 04:11:00,31.2,29.4,30.12,ESE,110,0.0,0.0,93,0.00,,,0.00,0,Wunderground v.1.15,2013-11-24 11:11:00,
2013-11-24 04:16:00,31.2,29.4,30.12,ESE,110,0.0,0.0,93,0.00,,,0.00,0,Wunderground v.1.15,2013-11-24 11:16:00,
2013-11-24 04:21:00,31.2,29.4,30.12,ESE,110,0.0,0.0,93,0.00,,,0.00,0,Wunderground v.1.15,2013-11-24 11:21:00,
2013-11-24 04:26:00,31.2,29.4,30.12,ESE,110,2.0,2.0,93,0.00,,,0.00,0,Wunderground v.1.15,2013-11-24 11:26:00,
2013-11-24 04:31:00,31.1,29.3,30.12,ESE,110,0.0,1.0,93,0.00,,,0.00,0,Wunderground v.1.15,2013-11-24 11:31:00,
2013-11-24 04:36:00,31.1,29.3,30.12,ESE,110,0.0,1.0,93,0.00,,,0.00,0,Wunderground v.1.15,2013-11-24 11:36:00,
2013-11-24 04:41:00,31.1,29.3,30.12,ESE,110,1.0,2.0,93,0.00,,,0.00,0,Wunderground v.1.15,2013-11-24 11:41:00,
2013-11-24 04:46:00,31.1,29.3,30.12,ESE,110,2.0,3.0,93,0.00,,,0.00,0,Wunderground v.1.15,2013-11-24 11:46:00,
2013-11-24 04:51:00,31.0,29.2,30.12,ESE,110,2.0,3.0,93,0.00,,,0.00,0,Wunderground v.1.15,2013-11-24 11:51:00,
2013-11-24 04:56:00,31.0,29.2,30.12,East,99,3.0,3.0,93,0.00,,,0.00,0,Wunderground v.1.15,2013-11-24 11:56:00,
2013-11-24 05:01:00,31.1,29.3,30.13,East,85,2.0,4.0,93,0.00,,,0.00,0,Wunderground v.1.15,2013-11-24 12:01:00,
2013-11-24 05:06:00,31.1,29.3,30.12,ENE,72,2.0,4.0,93,0.00,,,0.00,0,Wunderground v.1.15,2013-11-24 12:06:00,
2013-11-24 05:11:00,31.1,29.3,30.12,East,85,1.0,3.0,93,0.00,,,0.00,0,Wunderground v.1.15,2013-11-24 12:11:00,
2013-11-24 05:16:00,31.0,29.2,30.13,East,89,3.0,3.0,93,0.00,,,0.00,0,Wunderground v.1.15,2013-11-24 12:16:00,
2013-11-24 05:21:00,30.9,29.1,30.13,East,87,4.0,5.0,93,0.00,,,0.00,0,Wunderground v.1.15,2013-11-24 12:21:00,
2013-11-24 05:26:00,30.8,29.0,30.13,East,87,4.0,5.0,93,0.00,,,0.00,0,Wunderground v.1.15,2013-11-24 12:26:00,
2013-11-24 05:31:00,30.8,29.0,30.13,East,84,2.0,4.0,93,0.00,,,0.00,0,Wunderground v.1.15,2013-11-24 12:31:00,
2013-11-24 05:36:00,30.7,28.9,30.13,ENE,75,2.0,4.0,93,0.00,,,0.00,0,Wunderground v.1.15,2013-11-24 12:36:00,
2013-11-24 05:41:00,30.7,28.9,30.13,ENE,75,2.0,3.0,93,0.00,,,0.00,0,Wunderground v.1.15,2013-11-24 12:41:00,
2013-11-24 05:46:00,30.7,28.9,30.12,East,80,2.0,3.0,93,0.00,,,0.00,0,Wunderground v.1.15,2013-11-24 12:46:00,
2013-11-24 05:51:00,30.7,28.9,30.13,East,84,2.0,2.0,93,0.00,,,0.00,0,Wunderground v.1.15,2013-11-24 12:51:00,
2013-11-24 05:56:00,30.7,28.9,30.13,ENE,71,3.0,3.0,93,0.00,,,0.00,0,Wunderground v.1.15,2013-11-24 12:56:00,
2013-11-24 06:01:00,30.7,28.9,30.13,ENE,61,3.0,3.0,93,0.00,,,0.00,0,Wunderground v.1.15,2013-11-24 13:01:00,
2013-11-24 06:06:00,30.6,28.8,30.13,NE,55,2.0,3.0,93,0.00,,,0.00,0,Wunderground v.1.15,2013-11-24 13:06:00,
2013-11-24 06:11:00,30.5,28.7,30.13,NE,55,2.0,2.0,93,0.00,,,0.00,0,Wunderground v.1.15,2013-11-24 13:11:00,
2013-11-24 06:16:00,30.5,28.7,30.13,ENE,58,2.0,3.0,93,0.00,,,0.00,0,Wunderground v.1.15,2013-11-24 13:16:00,
2013-11-24 06:21:00,30.5,28.7,30.13,ENE,58,2.0,2.0,93,0.00,,,0.00,0,Wunderground v.1.15,2013-11-24 13:21:00,
2013-11-24 06:26:00,30.4,28.6,30.14,ENE,58,1.0,3.0,93,0.00,,,0.00,0,Wunderground v.1.15,2013-11-24 13:26:00,
2013-11-24 06:31:00,30.3,28.5,30.14,NE,56,2.0,2.0,93,0.00,,,0.00,0,Wunderground v.1.15,2013-11-24 13:31:00,
2013-11-24 06:36:00,30.3,28.5,30.14,ENE,60,3.0,3.0,93,0.00,,,0.00,0,Wunderground v.1.15,2013-11-24 13:36:00,
2013-11-24 06:41:00,30.3,28.5,30.14,ENE,76,3.0,4.0,93,0.00,,,0.00,0,Wunderground v.1.15,2013-11-24 13:41:00,
2013-11-24 06:45:00,30.3,28.5,30.15,East,81,2.0,5.0,93,0.00,,,0.00,0,Wunderground v.1.15,2013-11-24 13:45:00,
2013-11-24 06:50:00,30.3,28.5,30.14,ENE,78,5.0,5.0,93,0.00,,,0.00,0,Wunderground v.1.15,2013-11-24 13:50:00,
2013-11-24 06:55:00,30.2,28.4,30.14,East,86,4.0,5.0,93,0.00,,,0.00,0,Wunderground v.1.15,2013-11-24 13:55:00,
2013-11-24 07:00:00,30.1,28.3,30.14,East,82,4.0,4.0,93,0.00,,,0.00,0,Wunderground v.1.15,2013-11-24 14:00:00,
2013-11-24 07:05:00,30.1,28.3,30.15,ENE,78,3.0,6.0,93,0.00,,,0.00,0,Wunderground v.1.15,2013-11-24 14:05:00,
2013-11-24 07:10:00,30.1,28.3,30.15,ENE,59,2.0,3.0,93,0.00,,,0.00,0,Wunderground v.1.15,2013-11-24 14:10:00,
2013-11-24 07:15:00,30.1,28.3,30.15,ENE,73,3.0,4.0,93,0.00,,,0.00,0,Wunderground v.1.15,2013-11-24 14:15:00,
2013-11-24 07:20:00,30.1,28.3,30.15,ENE,74,1.0,2.0,93,0.00,,,0.00,0,Wunderground v.1.15,2013-11-24 14:20:00,
2013-11-24 07:25:00,30.1,28.3,30.15,ENE,74,1.0,2.0,93,0.00,,,0.00,7,Wunderground v.1.15,2013-11-24 14:25:00,
2013-11-24 07:30:00,30.1,28.3,30.15,ENE,72,2.0,2.0,93,0.00,,,0.00,9,Wunderground v.1.15,2013-11-24 14:30:00,
2013-11-24 07:35:00,30.1,28.3,30.15,ENE,76,1.0,3.0,93,0.00,,,0.00,14,Wunderground v.1.15,2013-11-24 14:35:00,
2013-11-24 07:40:00,30.0,28.2,30.15,East,80,2.0,3.0,93,0.00,,,0.00,18,Wunderground v.1.15,2013-11-24 14:40:00,
2013-11-24 07:45:00,29.9,28.1,30.15,East,88,3.0,4.0,93,0.00,,,0.00,21,Wunderground v.1.15,2013-11-24 14:45:00,
2013-11-24 07:50:00,29.9,28.1,30.16,East,89,2.0,3.0,93,0.00,,,0.00,26,Wunderground v.1.15,2013-11-24 14:50:00,
2013-11-24 07:55:00,29.9,28.1,30.16,East,82,2.0,4.0,93,0.00,,,0.00,30,Wunderground v.1.15,2013-11-24 14:55:00,
2013-11-24 08:00:00,29.9,28.1,30.16,East,80,2.0,3.0,93,0.00,,,0.00,33,Wunderground v.1.15,2013-11-24 15:00:00,
2013-11-24 08:05:00,30.0,28.2,30.16,East,82,1.0,3.0,93,0.00,,,0.00,37,Wunderground v.1.15,2013-11-24 15:05:00,
2013-11-24 08:10:00,30.0,28.2,30.16,East,83,1.0,2.0,93,0.00,,,0.00,37,Wunderground v.1.15,2013-11-24 15:10:00,
2013-11-24 08:15:00,30.1,28.3,30.17,East,83,1.0,3.0,93,0.00,,,0.00,42,Wunderground v.1.15,2013-11-24 15:15:00,
2013-11-24 08:20:00,30.1,28.3,30.17,ENE,74,1.0,2.0,93,0.00,,,0.00,42,Wunderground v.1.15,2013-11-24 15:20:00,
2013-11-24 08:25:00,30.1,28.3,30.17,East,80,2.0,4.0,93,0.00,,,0.00,47,Wunderground v.1.15,2013-11-24 15:25:00,
2013-11-24 08:30:00,30.1,28.3,30.17,ENE,57,3.0,4.0,93,0.00,,,0.00,56,Wunderground v.1.15,2013-11-24 15:30:00,
2013-11-24 08:35:00,30.1,28.3,30.17,NE,55,3.0,5.0,93,0.00,,,0.00,63,Wunderground v.1.15,2013-11-24 15:35:00,
2013-11-24 08:40:00,30.1,28.3,30.17,NE,56,2.0,3.0,93,0.00,,,0.00,72,Wunderground v.1.15,2013-11-24 15:40:00,
2013-11-24 08:45:00,30.2,28.4,30.18,NE,55,2.0,3.0,93,0.00,,,0.00,74,Wunderground v.1.15,2013-11-24 15:45:00,
2013-11-24 08:50:00,30.4,28.6,30.18,NE,54,3.0,3.0,93,0.00,,,0.00,76,Wunderground v.1.15,2013-11-24 15:50:00,
2013-11-24 08:55:00,30.5,28.7,30.18,NE,54,1.0,3.0,93,0.00,,,0.00,91,Wunderground v.1.15,2013-11-24 15:55:00,
2013-11-24 09:00:00,30.6,28.8,30.18,NE,51,0.0,1.0,93,0.00,,,0.00,116,Wunderground v.1.15,2013-11-24 16:00:00,
2013-11-24 09:05:00,30.8,29.0,30.18,NE,42,1.0,2.0,93,0.00,,,0.00,132,Wunderground v.1.15,2013-11-24 16:05:00,
2013-11-24 09:10:00,30.9,29.1,30.18,NE,42,3.0,3.0,93,0.00,,,0.00,141,Wunderground v.1.15,2013-11-24 16:10:00,
2013-11-24 09:15:00,30.9,29.1,30.18,NE,42,2.0,3.0,93,0.00,,,0.00,149,Wunderground v.1.15,2013-11-24 16:15:00,
2013-11-24 09:20:00,30.9,29.1,30.18,NE,42,1.0,3.0,93,0.00,,,0.00,144,Wunderground v.1.15,2013-11-24 16:20:00,
2013-11-24 09:25:00,30.9,29.1,30.19,NE,43,1.0,3.0,93,0.00,,,0.00,139,Wunderground v.1.15,2013-11-24 16:25:00,
2013-11-24 09:30:00,31.0,29.2,30.19,NE,43,1.0,2.0,93,0.00,,,0.00,155,Wunderground v.1.15,2013-11-24 16:30:00,
2013-11-24 09:35:00,31.1,29.3,30.19,NE,43,2.0,2.0,93,0.00,,,0.00,179,Wunderground v.1.15,2013-11-24 16:35:00,
2013-11-24 09:40:00,31.1,29.3,30.19,NE,43,1.0,1.0,93,0.00,,,0.00,202,Wunderground v.1.15,2013-11-24 16:40:00,
2013-11-24 09:45:00,31.4,29.6,30.19,NE,43,0.0,1.0,93,0.00,,,0.00,186,Wunderground v.1.15,2013-11-24 16:45:00,
2013-11-24 09:50:00,31.6,29.8,30.19,NE,43,1.0,1.0,93,0.00,,,0.00,176,Wunderground v.1.15,2013-11-24 16:50:00,
2013-11-24 09:55:00,31.7,29.9,30.19,NE,43,1.0,2.0,93,0.00,,,0.00,195,Wunderground v.1.15,2013-11-24 16:55:00,
2013-11-24 10:00:00,31.7,29.9,30.19,NE,43,0.0,1.0,93,0.00,,,0.00,204,Wunderground v.1.15,2013-11-24 17:00:00,
2013-11-24 10:05:00,31.9,30.1,30.19,NE,43,0.0,1.0,93,0.00,,,0.00,190,Wunderground v.1.15,2013-11-24 17:05:00,
2013-11-24 10:10:00,32.1,30.3,30.19,NE,43,0.0,0.0,93,0.00,,,0.01,237,Wunderground v.1.15,2013-11-24 17:10:00,
2013-11-24 10:15:00,32.4,30.6,30.19,NE,43,1.0,2.0,93,0.00,,,0.01,207,Wunderground v.1.15,2013-11-24 17:15:00,
2013-11-24 10:20:00,32.3,30.5,30.20,NE,43,2.0,2.0,93,0.05,,,0.02,193,Wunderground v.1.15,2013-11-24 17:20:00,
2013-11-24 10:25:00,32.1,30.3,30.20,NE,42,0.0,3.0,93,0.05,,,0.02,288,Wunderground v.1.15,2013-11-24 17:25:00,
2013-11-24 10:30:00,32.4,30.6,30.20,NE,42,0.0,1.0,93,0.07,,,0.03,292,Wunderground v.1.15,2013-11-24 17:30:00,
2013-11-24 10:35:00,32.7,30.9,30.20,NE,42,2.0,2.0,93,0.07,,,0.03,211,Wunderground v.1.15,2013-11-24 17:35:00,
2013-11-24 10:40:00,32.4,30.6,30.20,North,355,2.0,3.0,93,0.06,,,0.04,153,Wunderground v.1.15,2013-11-24 17:40:00,
2013-11-24 10:45:00,32.0,30.2,30.20,North,355,1.0,3.0,93,0.06,,,0.04,179,Wunderground v.1.15,2013-11-24 17:45:00,
2013-11-24 10:50:00,32.1,30.3,30.20,North,355,2.0,3.0,93,0.05,,,0.05,246,Wunderground v.1.15,2013-11-24 17:50:00,
2013-11-24 10:55:00,32.5,30.7,30.20,North,355,0.0,3.0,93,0.05,,,0.05,366,Wunderground v.1.15,2013-11-24 17:55:00,
2013-11-24 11:00:00,33.2,31.4,30.20,North,355,1.0,2.0,93,0.05,,,0.05,417,Wunderground v.1.15,2013-11-24 18:00:00,
2013-11-24 11:05:00,33.8,32.0,30.20,North,355,0.0,2.0,93,0.05,,,0.06,464,Wunderground v.1.15,2013-11-24 18:05:00,
2013-11-24 11:10:00,34.9,33.1,30.20,North,355,0.0,1.0,93,0.07,,,0.07,396,Wunderground v.1.15,2013-11-24 18:10:00,
2013-11-24 11:15:00,35.0,33.2,30.19,North,355,0.0,1.0,93,0.07,,,0.07,404,Wunderground v.1.15,2013-11-24 18:15:00,
2013-11-24 11:20:00,36.1,34.3,30.19,North,355,0.0,0.0,93,0.07,,,0.08,506,Wunderground v.1.15,2013-11-24 18:20:00,
2013-11-24 11:25:00,37.3,35.5,30.19,North,355,0.0,0.0,93,0.10,,,0.09,401,Wunderground v.1.15,2013-11-24 18:25:00,
2013-11-24 11:30:00,36.9,35.1,30.19,North,355,1.0,1.0,93,0.09,,,0.10,585,Wunderground v.1.15,2013-11-24 18:30:00,
2013-11-24 11:35:00,36.3,34.2,30.19,North,355,1.0,2.0,92,0.13,,,0.11,448,Wunderground v.1.15,2013-11-24 18:35:00,
2013-11-24 11:40:00,36.1,34.0,30.19,North,355,1.0,1.0,92,0.10,,,0.11,798,Wunderground v.1.15,2013-11-24 18:40:00,
2013-11-24 11:45:00,36.3,34.2,30.19,North,355,1.0,2.0,92,0.12,,,0.12,580,Wunderground v.1.15,2013-11-24 18:45:00,
2013-11-24 11:50:00,36.2,34.4,30.19,North,355,0.0,1.0,93,0.12,,,0.13,408,Wunderground v.1.15,2013-11-24 18:50:00,
2013-11-24 11:55:00,36.1,34.3,30.18,North,355,0.0,2.0,93,0.08,,,0.14,754,Wunderground v.1.15,2013-11-24 18:55:00,
2013-11-24 12:00:00,37.7,35.9,30.18,North,355,0.0,1.0,93,0.09,,,0.15,763,Wunderground v.1.15,2013-11-24 19:00:00,
2013-11-24 12:05:00,38.3,36.5,30.17,North,355,0.0,2.0,93,0.09,,,0.15,744,Wunderground v.1.15,2013-11-24 19:05:00,
2013-11-24 12:10:00,38.2,36.4,30.17,North,5,2.0,2.0,93,0.09,,,0.16,780,Wunderground v.1.15,2013-11-24 19:10:00,
2013-11-24 12:15:00,37.3,35.5,30.17,East,87,3.0,3.0,93,0.11,,,0.17,406,Wunderground v.1.15,2013-11-24 19:15:00,
2013-11-24 12:20:00,35.7,33.6,30.17,ESE,110,1.0,2.0,92,0.07,,,0.17,483,Wunderground v.1.15,2013-11-24 19:20:00,
2013-11-24 12:25:00,35.4,33.3,30.17,ESE,110,0.0,3.0,92,0.07,,,0.18,364,Wunderground v.1.15,2013-11-24 19:25:00,
2013-11-24 12:30:00,35.0,32.9,30.17,East,98,3.0,3.0,92,0.06,,,0.18,353,Wunderground v.1.15,2013-11-24 19:30:00,
2013-11-24 12:35:00,34.4,32.3,30.17,East,82,2.0,4.0,92,0.04,,,0.19,364,Wunderground v.1.15,2013-11-24 19:35:00,
2013-11-24 12:40:00,34.1,32.0,30.17,ENE,65,4.0,5.0,92,0.04,,,0.19,355,Wunderground v.1.15,2013-11-24 19:40:00,
2013-11-24 12:45:00,33.9,31.8,30.16,East,80,3.0,5.0,92,0.04,,,0.19,824,Wunderground v.1.15,2013-11-24 19:45:00,
2013-11-24 12:50:00,34.4,32.3,30.16,East,80,1.0,3.0,92,0.04,,,0.19,737,Wunderground v.1.15,2013-11-24 19:50:00,
2013-11-24 12:55:00,34.4,32.3,30.16,East,79,2.0,5.0,92,0.00,,,0.19,341,Wunderground v.1.15,2013-11-24 19:55:00,
2013-11-24 13:00:00,34.4,32.3,30.16,East,79,3.0,3.0,92,0.00,,,0.19,313,Wunderground v.1.15,2013-11-24 20:00:00,
2013-11-24 13:05:00,34.4,32.3,30.16,East,79,2.0,3.0,92,0.00,,,0.19,359,Wunderground v.1.15,2013-11-24 20:05:00,
2013-11-24 13:09:00,34.7,32.6,30.16,East,79,2.0,3.0,92,0.00,,,0.19,540,Wunderground v.1.15,2013-11-24 20:09:00,
2013-11-24 13:14:00,35.3,33.2,30.15,East,97,2.0,3.0,92,0.00,,,0.19,357,Wunderground v.1.15,2013-11-24 20:14:00,
2013-11-24 13:19:00,35.6,33.5,30.15,SE,142,1.0,4.0,92,0.00,,,0.19,251,Wunderground v.1.15,2013-11-24 20:19:00,
2013-11-24 13:24:00,35.7,33.6,30.15,ESE,117,3.0,3.0,92,0.00,,,0.19,218,Wunderground v.1.15,2013-11-24 20:24:00,
2013-11-24 13:29:00,35.6,33.2,30.15,ESE,117,2.0,3.0,91,0.00,,,0.19,169,Wunderground v.1.15,2013-11-24 20:29:00,
2013-11-24 13:34:00,35.1,32.7,30.15,ESE,117,1.0,3.0,91,0.00,,,0.19,186,Wunderground v.1.15,2013-11-24 20:34:00,
2013-11-24 13:39:00,34.8,32.2,30.15,East,88,4.0,4.0,90,0.00,,,0.19,174,Wunderground v.1.15,2013-11-24 20:39:00,
2013-11-24 13:44:00,34.6,32.0,30.15,East,83,0.0,5.0,90,0.00,,,0.19,156,Wunderground v.1.15,2013-11-24 20:44:00,
2013-11-24 13:49:00,34.9,32.3,30.15,NE,47,3.0,5.0,90,0.00,,,0.19,156,Wunderground v.1.15,2013-11-24 20:49:00,
2013-11-24 13:54:00,34.9,32.3,30.15,NNW,344,3.0,3.0,90,0.00,,,0.19,165,Wunderground v.1.15,2013-11-24 20:54:00,
2013-11-24 13:59:00,35.0,32.1,30.15,NNW,344,1.0,4.0,89,0.00,,,0.19,185,Wunderground v.1.15,2013-11-24 20:59:00,
2013-11-24 14:04:00,35.1,32.2,30.15,NNW,342,3.0,4.0,89,0.00,,,0.19,185,Wunderground v.1.15,2013-11-24 21:04:00,
2013-11-24 14:09:00,35.1,32.2,30.15,NNE,27,1.0,5.0,89,0.00,,,0.19,202,Wunderground v.1.15,2013-11-24 21:09:00,
2013-11-24 14:14:00,35.3,32.1,30.15,NNE,29,2.0,4.0,88,0.00,,,0.19,264,Wunderground v.1.15,2013-11-24 21:14:00,
2013-11-24 14:19:00,35.6,32.1,30.15,North,5,3.0,4.0,87,0.00,,,0.19,364,Wunderground v.1.15,2013-11-24 21:19:00,
2013-11-24 14:24:00,35.7,31.9,30.15,NNE,28,1.0,4.0,86,0.00,,,0.19,262,Wunderground v.1.15,2013-11-24 21:24:00,
2013-11-24 14:29:00,35.6,31.5,30.15,NNW,327,4.0,5.0,85,0.00,,,0.19,195,Wunderground v.1.15,2013-11-24 21:29:00,
2013-11-24 14:34:00,35.2,30.9,30.15,NW,316,3.0,5.0,84,0.00,,,0.19,148,Wunderground v.1.15,2013-11-24 21:34:00,
2013-11-24 14:39:00,35.0,30.7,30.16,NNW,328,3.0,5.0,84,0.00,,,0.19,146,Wunderground v.1.15,2013-11-24 21:39:00,
2013-11-24 14:44:00,34.8,30.5,30.16,NW,319,4.0,5.0,84,0.00,,,0.19,156,Wunderground v.1.15,2013-11-24 21:44:00,
2013-11-24 14:49:00,34.7,30.4,30.16,NW,324,2.0,5.0,84,0.00,,,0.19,183,Wunderground v.1.15,2013-11-24 21:49:00,
2013-11-24 14:54:00,34.8,30.5,30.16,NW,324,1.0,3.0,84,0.00,,,0.19,186,Wunderground v.1.15,2013-11-24 21:54:00,
2013-11-24 14:59:00,35.0,30.7,30.16,NW,324,2.0,3.0,84,0.00,,,0.19,179,Wunderground v.1.15,2013-11-24 21:59:00,
2013-11-24 15:04:00,35.1,30.8,30.16,NNW,334,2.0,4.0,84,0.00,,,0.19,127,Wunderground v.1.15,2013-11-24 22:04:00,
2013-11-24 15:09:00,35.2,30.9,30.17,North,355,2.0,4.0,84,0.00,,,0.19,104,Wunderground v.1.15,2013-11-24 22:09:00,
2013-11-24 15:14:00,35.2,30.9,30.17,NE,53,4.0,5.0,84,0.00,,,0.19,105,Wunderground v.1.15,2013-11-24 22:14:00,
2013-11-24 15:19:00,35.0,30.7,30.17,NW,312,3.0,5.0,84,0.00,,,0.19,128,Wunderground v.1.15,2013-11-24 22:19:00,
2013-11-24 15:24:00,34.8,30.2,30.17,NW,324,4.0,5.0,83,0.00,,,0.19,127,Wunderground v.1.15,2013-11-24 22:24:00,
2013-11-24 15:29:00,34.8,30.5,30.17,North,5,1.0,5.0,84,0.00,,,0.19,132,Wunderground v.1.15,2013-11-24 22:29:00,
2013-11-24 15:34:00,34.8,30.5,30.17,NE,49,4.0,5.0,84,0.00,,,0.19,151,Wunderground v.1.15,2013-11-24 22:34:00,
2013-11-24 15:39:00,34.6,30.3,30.17,NE,52,0.0,5.0,84,0.00,,,0.19,135,Wunderground v.1.15,2013-11-24 22:39:00,
2013-11-24 15:44:00,34.6,30.3,30.17,North,9,2.0,4.0,84,0.00,,,0.19,84,Wunderground v.1.15,2013-11-24 22:44:00,
2013-11-24 15:49:00,34.5,30.2,30.17,NNW,333,3.0,4.0,84,0.00,,,0.19,88,Wunderground v.1.15,2013-11-24 22:49:00,
2013-11-24 15:54:00,34.4,30.1,30.17,North,5,1.0,3.0,84,0.00,,,0.19,95,Wunderground v.1.15,2013-11-24 22:54:00,
2013-11-24 15:59:00,34.5,30.2,30.18,North,5,1.0,3.0,84,0.00,,,0.19,83,Wunderground v.1.15,2013-11-24 22:59:00,
2013-11-24 16:04:00,34.6,30.3,30.17,North,5,2.0,3.0,84,0.00,,,0.19,72,Wunderground v.1.15,2013-11-24 23:04:00,
2013-11-24 16:09:00,34.5,29.9,30.17,North,5,0.0,3.0,83,0.00,,,0.19,54,Wunderground v.1.15,2013-11-24 23:09:00,
2013-11-24 16:14:00,34.4,29.8,30.17,North,5,1.0,1.0,83,0.00,,,0.19,49,Wunderground v.1.15,2013-11-24 23:14:00,
2013-11-24 16:19:00,34.4,29.8,30.16,SW,222,4.0,4.0,83,0.00,,,0.19,39,Wunderground v.1.15,2013-11-24 23:19:00,
2013-11-24 16:24:00,34.1,29.5,30.17,SW,230,2.0,4.0,83,0.00,,,0.19,37,Wunderground v.1.15,2013-11-24 23:24:00,
2013-11-24 16:29:00,34.0,29.1,30.17,SW,236,2.0,4.0,82,0.00,,,0.19,28,Wunderground v.1.15,2013-11-24 23:29:00,
2013-11-24 16:34:00,33.8,29.2,30.17,SW,236,1.0,3.0,83,0.00,,,0.19,23,Wunderground v.1.15,2013-11-24 23:34:00,
2013-11-24 16:39:00,33.7,29.1,30.17,SW,236,0.0,3.0,83,0.00,,,0.19,26,Wunderground v.1.15,2013-11-24 23:39:00,
2013-11-24 16:44:00,33.8,29.5,30.18,SW,236,0.0,1.0,84,0.00,,,0.19,47,Wunderground v.1.15,2013-11-24 23:44:00,
2013-11-24 16:49:00,33.8,29.5,30.18,SW,236,0.0,1.0,84,0.00,,,0.19,54,Wunderground v.1.15,2013-11-24 23:49:00,
2013-11-24 16:54:00,33.8,29.5,30.18,WNW,290,1.0,3.0,84,0.00,,,0.19,49,Wunderground v.1.15,2013-11-24 23:54:00,
2013-11-24 16:59:00,33.7,29.4,30.18,WNW,290,0.0,3.0,84,0.00,,,0.19,37,Wunderground v.1.15,2013-11-24 23:59:00,
2013-11-24 17:04:00,33.7,29.4,30.18,WNW,290,0.0,1.0,84,0.00,,,0.19,28,Wunderground v.1.15,2013-11-25 00:04:00,
2013-11-24 17:09:00,33.6,29.3,30.18,WNW,290,0.0,1.0,84,0.00,,,0.19,14,Wunderground v.1.15,2013-11-25 00:09:00,
2013-11-24 17:14:00,33.4,29.1,30.18,WNW,290,0.0,1.0,84,0.00,,,0.19,5,Wunderground v.1.15,2013-11-25 00:14:00,
2013-11-24 17:19:00,33.2,28.9,30.18,WNW,290,0.0,1.0,84,0.00,,,0.19,0,Wunderground v.1.15,2013-11-25 00:19:00,
2013-11-24 17:24:00,32.9,28.6,30.18,WNW,290,0.0,0.0,84,0.00,,,0.19,0,Wunderground v.1.15,2013-11-25 00:24:00,
2013-11-24 17:29:00,32.6,28.6,30.18,WNW,290,0.0,1.0,85,0.00,,,0.19,0,Wunderground v.1.15,2013-11-25 00:29:00,
2013-11-24 17:34:00,32.3,28.3,30.18,WNW,290,0.0,1.0,85,0.00,,,0.19,0,Wunderground v.1.15,2013-11-25 00:34:00,
2013-11-24 17:39:00,32.1,28.4,30.19,WNW,290,0.0,1.0,86,0.00,,,0.19,0,Wunderground v.1.15,2013-11-25 00:39:00,
2013-11-24 17:44:00,32.0,28.3,30.19,WNW,290,0.0,0.0,86,0.00,,,0.19,0,Wunderground v.1.15,2013-11-25 00:44:00,
2013-11-24 17:49:00,31.9,28.5,30.19,WNW,290,0.0,0.0,87,0.00,,,0.19,0,Wunderground v.1.15,2013-11-25 00:49:00,
2013-11-24 17:54:00,31.7,28.3,30.19,WNW,290,0.0,1.0,87,0.00,,,0.19,0,Wunderground v.1.15,2013-11-25 00:54:00,
2013-11-24 17:59:00,31.5,28.1,30.20,WNW,290,1.0,2.0,87,0.00,,,0.19,0,Wunderground v.1.15,2013-11-25 00:59:00,
2013-11-24 18:04:00,31.2,27.8,30.20,WNW,290,1.0,1.0,87,0.00,,,0.19,0,Wunderground v.1.15,2013-11-25 01:04:00,
2013-11-24 18:09:00,31.1,27.7,30.20,WNW,290,3.0,3.0,87,0.00,,,0.19,0,Wunderground v.1.15,2013-11-25 01:09:00,
2013-11-24 18:14:00,30.9,27.8,30.20,WNW,291,2.0,3.0,88,0.00,,,0.19,0,Wunderground v.1.15,2013-11-25 01:14:00,
2013-11-24 18:19:00,30.9,27.8,30.20,NW,306,2.0,4.0,88,0.00,,,0.19,0,Wunderground v.1.15,2013-11-25 01:19:00,
2013-11-24 18:24:00,30.8,27.7,30.20,NW,317,2.0,4.0,88,0.00,,,0.19,0,Wunderground v.1.15,2013-11-25 01:24:00,
2013-11-24 18:29:00,30.8,27.9,30.20,NW,317,2.0,4.0,89,0.00,,,0.19,0,Wunderground v.1.15,2013-11-25 01:29:00,
2013-11-24 18:34:00,30.8,27.9,30.20,NW,321,1.0,3.0,89,0.00,,,0.19,0,Wunderground v.1.15,2013-11-25 01:34:00,
2013-11-24 18:39:00,30.7,27.8,30.20,NW,321,0.0,3.0,89,0.00,,,0.19,0,Wunderground v.1.15,2013-11-25 01:39:00,
2013-11-24 18:44:00,30.7,27.8,30.20,NW,321,1.0,2.0,89,0.00,,,0.19,0,Wunderground v.1.15,2013-11-25 01:44:00,
2013-11-24 18:49:00,30.6,27.7,30.20,ENE,61,1.0,3.0,89,0.00,,,0.19,0,Wunderground v.1.15,2013-11-25 01:49:00,
2013-11-24 18:53:00,30.5,27.6,30.20,NW,311,1.0,3.0,89,0.00,,,0.19,0,Wunderground v.1.15,2013-11-25 01:53:00,
2013-11-24 18:58:00,30.3,27.4,30.20,NW,310,0.0,3.0,89,0.00,,,0.19,0,Wunderground v.1.15,2013-11-25 01:58:00,
2013-11-24 19:03:00,30.2,27.3,30.20,NW,310,0.0,1.0,89,0.00,,,0.19,0,Wunderground v.1.15,2013-11-25 02:03:00,
2013-11-24 19:08:00,29.9,27.1,30.20,NW,310,0.0,1.0,89,0.00,,,0.19,0,Wunderground v.1.15,2013-11-25 02:08:00,
2013-11-24 19:13:00,29.8,27.0,30.20,NW,310,1.0,2.0,89,0.00,,,0.19,0,Wunderground v.1.15,2013-11-25 02:13:00,
2013-11-24 19:18:00,29.6,26.8,30.20,NW,310,0.0,2.0,89,0.00,,,0.19,0,Wunderground v.1.15,2013-11-25 02:18:00,
2013-11-24 19:23:00,29.2,26.4,30.20,NW,310,1.0,2.0,89,0.00,,,0.19,0,Wunderground v.1.15,2013-11-25 02:23:00,
2013-11-24 19:28:00,28.8,26.0,30.20,NW,310,1.0,3.0,89,0.00,,,0.19,0,Wunderground v.1.15,2013-11-25 02:28:00,
2013-11-24 19:33:00,28.3,25.5,30.20,WNW,294,4.0,4.0,89,0.00,,,0.19,0,Wunderground v.1.15,2013-11-25 02:33:00,
2013-11-24 19:38:00,28.6,25.8,30.20,West,259,3.0,4.0,89,0.00,,,0.19,0,Wunderground v.1.15,2013-11-25 02:38:00,
2013-11-24 19:43:00,28.5,25.7,30.20,WSW,250,2.0,4.0,89,0.00,,,0.19,0,Wunderground v.1.15,2013-11-25 02:43:00,
2013-11-24 19:48:00,28.8,26.0,30.21,WSW,237,4.0,5.0,89,0.00,,,0.19,0,Wunderground v.1.15,2013-11-25 02:48:00,
2013-11-24 19:53:00,28.5,25.7,30.21,SW,225,1.0,5.0,89,0.00,,,0.19,0,Wunderground v.1.15,2013-11-25 02:53:00,
2013-11-24 19:58:00,27.8,25.0,30.21,SW,226,3.0,5.0,89,0.00,,,0.19,0,Wunderground v.1.15,2013-11-25 02:58:00,
2013-11-24 20:03:00,27.3,24.5,30.21,SW,225,2.0,3.0,89,0.00,,,0.19,0,Wunderground v.1.15,2013-11-25 03:03:00,
2013-11-24 20:08:00,27.0,24.5,30.21,SW,226,3.0,4.0,90,0.00,,,0.19,0,Wunderground v.1.15,2013-11-25 03:08:00,
2013-11-24 20:13:00,27.0,24.5,30.21,SW,226,3.0,4.0,90,0.00,,,0.19,0,Wunderground v.1.15,2013-11-25 03:13:00,
2013-11-24 20:18:00,26.9,24.4,30.21,SW,226,2.0,4.0,90,0.00,,,0.19,0,Wunderground v.1.15,2013-11-25 03:18:00,
2013-11-24 20:23:00,27.0,24.5,30.21,SW,226,2.0,3.0,90,0.00,,,0.19,0,Wunderground v.1.15,2013-11-25 03:23:00,
2013-11-24 20:28:00,26.6,24.1,30.21,SW,226,2.0,3.0,90,0.00,,,0.19,0,Wunderground v.1.15,2013-11-25 03:28:00,
2013-11-24 20:33:00,26.1,23.6,30.21,SW,226,1.0,2.0,90,0.00,,,0.19,0,Wunderground v.1.15,2013-11-25 03:33:00,
2013-11-24 20:38:00,25.7,23.2,30.21,SW,226,1.0,2.0,90,0.00,,,0.19,0,Wunderground v.1.15,2013-11-25 03:38:00,
2013-11-24 20:43:00,25.7,23.2,30.21,SW,226,1.0,1.0,90,0.00,,,0.19,0,Wunderground v.1.15,2013-11-25 03:43:00,
2013-11-24 20:48:00,25.6,23.1,30.22,NNW,342,1.0,2.0,90,0.00,,,0.19,0,Wunderground v.1.15,2013-11-25 03:48:00,
2013-11-24 20:53:00,25.5,23.0,30.22,NNE,12,2.0,3.0,90,0.00,,,0.19,0,Wunderground v.1.15,2013-11-25 03:53:00,
2013-11-24 20:58:00,25.1,22.6,30.22,NNE,12,0.0,3.0,90,0.00,,,0.19,0,Wunderground v.1.15,2013-11-25 03:58:00,
2013-11-24 21:03:00,24.9,22.4,30.22,NNE,12,0.0,1.0,90,0.00,,,0.19,0,Wunderground v.1.15,2013-11-25 04:03:00,
2013-11-24 21:08:00,24.6,22.1,30.22,NNE,12,1.0,1.0,90,0.00,,,0.19,0,Wunderground v.1.15,2013-11-25 04:08:00,
2013-11-24 21:13:00,24.2,21.7,30.23,WSW,246,2.0,3.0,90,0.00,,,0.19,0,Wunderground v.1.15,2013-11-25 04:13:00,
2013-11-24 21:18:00,23.9,21.4,30.23,WSW,246,1.0,3.0,90,0.00,,,0.19,0,Wunderground v.1.15,2013-11-25 04:18:00,
2013-11-24 21:23:00,23.9,21.4,30.23,West,275,3.0,4.0,90,0.00,,,0.19,0,Wunderground v.1.15,2013-11-25 04:23:00,
2013-11-24 21:28:00,24.3,21.8,30.23,West,281,1.0,6.0,90,0.00,,,0.19,0,Wunderground v.1.15,2013-11-25 04:28:00,
2013-11-24 21:33:00,24.1,21.6,30.23,WNW,296,2.0,4.0,90,0.00,,,0.19,0,Wunderground v.1.15,2013-11-25 04:33:00,
2013-11-24 21:38:00,23.6,21.1,30.23,SW,214,3.0,4.0,90,0.00,,,0.19,0,Wunderground v.1.15,2013-11-25 04:38:00,
2013-11-24 21:43:00,23.5,21.0,30.23,SW,214,2.0,2.0,90,0.00,,,0.19,0,Wunderground v.1.15,2013-11-25 04:43:00,
2013-11-24 21:48:00,24.2,22.0,30.23,SW,221,2.0,3.0,91,0.00,,,0.19,0,Wunderground v.1.15,2013-11-25 04:48:00,
2013-11-24 21:53:00,24.4,22.2,30.23,SW,221,3.0,3.0,91,0.00,,,0.19,0,Wunderground v.1.15,2013-11-25 04:53:00,
2013-11-24 21:58:00,24.6,22.3,30.23,SW,234,3.0,4.0,91,0.00,,,0.19,0,Wunderground v.1.15,2013-11-25 04:58:00,
2013-11-24 22:01:00,24.5,22.2,30.23,SW,234,1.0,3.0,91,0.00,,,0.19,0,Wunderground v.1.15,2013-11-25 05:01:00,
2013-11-24 22:06:00,23.9,21.7,30.23,NW,306,0.0,3.0,91,0.00,,,0.19,0,Wunderground v.1.15,2013-11-25 05:06:00,
2013-11-24 22:11:00,23.6,21.1,30.23,WNW,288,2.0,3.0,90,0.00,,,0.19,0,Wunderground v.1.15,2013-11-25 05:11:00,
2013-11-24 22:16:00,23.4,20.9,30.23,WNW,288,1.0,3.0,90,0.00,,,0.19,0,Wunderground v.1.15,2013-11-25 05:16:00,
2013-11-24 22:21:00,23.7,21.5,30.23,WNW,288,1.0,2.0,91,0.00,,,0.19,0,Wunderground v.1.15,2013-11-25 05:21:00,
2013-11-24 22:26:00,24.0,21.8,30.22,West,281,2.0,3.0,91,0.00,,,0.19,0,Wunderground v.1.15,2013-11-25 05:26:00,
2013-11-24 22:31:00,23.7,21.5,30.22,West,281,2.0,2.0,91,0.00,,,0.19,0,Wunderground v.1.15,2013-11-25 05:31:00,
2013-11-24 22:36:00,23.3,21.1,30.23,West,281,1.0,2.0,91,0.00,,,0.19,0,Wunderground v.1.15,2013-11-25 05:36:00,
2013-11-24 22:41:00,22.9,20.4,30.22,West,281,1.0,1.0,90,0.00,,,0.19,0,Wunderground v.1.15,2013-11-25 05:41:00,
2013-11-24 22:46:00,22.5,20.0,30.23,West,281,1.0,2.0,90,0.00,,,0.19,0,Wunderground v.1.15,2013-11-25 05:46:00,
2013-11-24 22:51:00,22.2,19.7,30.23,West,281,2.0,2.0,90,0.00,,,0.19,0,Wunderground v.1.15,2013-11-25 05:51:00,
2013-11-24 22:56:00,21.9,19.4,30.23,West,281,0.0,2.0,90,0.00,,,0.19,0,Wunderground v.1.15,2013-11-25 05:56:00,
2013-11-24 23:01:00,21.7,19.2,30.23,West,281,1.0,2.0,90,0.00,,,0.19,0,Wunderground v.1.15,2013-11-25 06:01:00,
2013-11-24 23:06:00,21.8,19.3,30.23,West,281,1.0,2.0,90,0.00,,,0.19,0,Wunderground v.1.15,2013-11-25 06:06:00,
2013-11-24 23:10:00,21.9,19.4,30.24,West,263,2.0,3.0,90,0.00,,,0.19,0,Wunderground v.1.15,2013-11-25 06:10:00,
2013-11-24 23:15:00,22.1,19.6,30.24,West,260,0.0,3.0,90,0.00,,,0.19,0,Wunderground v.1.15,2013-11-25 06:15:00,
2013-11-24 23:20:00,22.0,19.5,30.24,West,260,1.0,2.0,90,0.00,,,0.19,0,Wunderground v.1.15,2013-11-25 06:20:00,
2013-11-24 23:25:00,21.8,19.3,30.24,WNW,300,0.0,3.0,90,0.00,,,0.19,0,Wunderground v.1.15,2013-11-25 06:25:00,
2013-11-24 23:30:00,21.1,18.6,30.24,NW,320,1.0,2.0,90,0.00,,,0.19,0,Wunderground v.1.15,2013-11-25 06:30:00,
2013-11-24 23:35:00,20.5,18.0,30.24,West,281,2.0,2.0,90,0.00,,,0.19,0,Wunderground v.1.15,2013-11-25 06:35:00,
2013-11-24 23:40:00,19.7,17.2,30.24,SW,221,2.0,3.0,90,0.00,,,0.19,0,Wunderground v.1.15,2013-11-25 06:40:00,
2013-11-24 23:45:00,19.4,16.9,30.24,SW,220,0.0,3.0,90,0.00,,,0.19,0,Wunderground v.1.15,2013-11-25 06:45:00,
2013-11-24 23:50:00,19.2,16.7,30.24,SW,221,0.0,1.0,90,0.00,,,0.19,0,Wunderground v.1.15,2013-11-25 06:50:00,
2013-11-24 23:55:00,19.6,17.1,30.24,SW,221,1.0,2.0,90,0.00,,,0.19,0,Wunderground v.1.15,2013-11-25 06:55:00,